• In Germany
  • List of Countries
  • For 7 days
  • Water Temperature
  • Satellite Maps
  • Weather Map
  • Weather Widgets
  • user-avatar
    Login

    Hourly Weather Arauca

    Today, 21 January, Sunday

    Time Temperature Precipitation Wind Pressure Humidity
    00:00 +25°C° 0 mm 1 mps 748 mmHg 74%
    01:00 +25°C° 0 mm 2 mps 748 mmHg 71%
    02:00 +24°C° 0 mm 1 mps 748 mmHg 69%
    03:00 +24°C° 0 mm 1 mps 747 mmHg 67%
    04:00 +24°C° 0 mm 1 mps 747 mmHg 66%
    05:00 +24°C° 0 mm 1 mps 748 mmHg 64%
    06:00 +24°C° 0 mm 1 mps 748 mmHg 62%
    07:00 +24°C° 0 mm 1 mps 748 mmHg 60%
    08:00 +27°C° 0 mm 2 mps 749 mmHg 56%
    09:00 +29°C° 0 mm 2 mps 749 mmHg 52%
    10:00 +31°C° 0 mm 3 mps 749 mmHg 48%
    11:00 +33°C° 0 mm 3 mps 748 mmHg 47%
    12:00 +34°C° 0 mm 3 mps 748 mmHg 45%
    13:00 +35°C° 0 mm 3 mps 747 mmHg 44%
    14:00 +35°C° 0 mm 3 mps 746 mmHg 44%
    15:00 +35°C° 0 mm 2 mps 745 mmHg 45%
    16:00 +35°C° 0 mm 2 mps 745 mmHg 45%
    17:00 +32°C° 0 mm 2 mps 745 mmHg 51%
    18:00 +30°C° 0 mm 1 mps 745 mmHg 56%
    19:00 +29°C° 0 mm 1 mps 745 mmHg 62%
    20:00 +28°C° 0 mm 1 mps 746 mmHg 62%
    21:00 +27°C° 0 mm 1 mps 746 mmHg 63%
    22:00 +27°C° 0 mm 1 mps 747 mmHg 64%
    23:00 +26°C° 0 mm 1 mps 747 mmHg 61%

    Tomorrow, 22 January, Monday

    Time Temperature Precipitation Wind Pressure Humidity
    00:00 +26°C° 0 mm 1 mps 747 mmHg 59%
    01:00 +25°C° 0 mm 2 mps 746 mmHg 57%
    02:00 +25°C° 0 mm 1 mps 746 mmHg 56%
    03:00 +24°C° 0 mm 1 mps 746 mmHg 55%
    04:00 +24°C° 0 mm 1 mps 746 mmHg 55%
    05:00 +24°C° 0 mm 1 mps 746 mmHg 55%
    06:00 +24°C° 0 mm 1 mps 747 mmHg 55%
    07:00 +25°C° 0 mm 1 mps 747 mmHg 56%
    08:00 +27°C° 0 mm 2 mps 748 mmHg 53%
    09:00 +29°C° 0 mm 3 mps 748 mmHg 49%
    10:00 +33°C° 0 mm 3 mps 749 mmHg 46%
    11:00 +34°C° 0 mm 3 mps 748 mmHg 44%
    12:00 +35°C° 0 mm 3 mps 747 mmHg 42%
    13:00 +36°C° 0 mm 3 mps 746 mmHg 40%
    14:00 +36°C° 0 mm 3 mps 745 mmHg 41%
    15:00 +36°C° 0 mm 3 mps 744 mmHg 41%
    16:00 +35°C° 0 mm 2 mps 744 mmHg 42%
    17:00 +34°C° 0 mm 2 mps 744 mmHg 48%
    18:00 +31°C° 0 mm 2 mps 744 mmHg 54%
    19:00 +29°C° 0 mm 1 mps 745 mmHg 60%
    20:00 +29°C° 0 mm 1 mps 745 mmHg 61%
    21:00 +28°C° 0 mm 1 mps 746 mmHg 61%
    22:00 +28°C° 0 mm 2 mps 746 mmHg 62%
    23:00 +27°C° 0 mm 2 mps 746 mmHg 59%

    Day after tomorrow, 23 January, Tuesday

    Time Temperature Precipitation Wind Pressure Humidity
    00:00 +26°C° 0 mm 2 mps 746 mmHg 56%
    01:00 +26°C° 0 mm 2 mps 746 mmHg 53%
    02:00 +25°C° 0 mm 1 mps 746 mmHg 52%
    03:00 +25°C° 0 mm 1 mps 745 mmHg 51%
    04:00 +24°C° 0 mm 1 mps 745 mmHg 50%
    05:00 +25°C° 0 mm 1 mps 746 mmHg 50%
    06:00 +25°C° 0 mm 1 mps 747 mmHg 50%
    07:00 +25°C° 0 mm 1 mps 747 mmHg 50%
    08:00 +27°C° 0 mm 2 mps 748 mmHg 48%
    09:00 +30°C° 0 mm 3 mps 748 mmHg 46%
    10:00 +33°C° 0 mm 3 mps 749 mmHg 45%
    11:00 +34°C° 0 mm 3 mps 748 mmHg 43%
    12:00 +35°C° 0 mm 3 mps 747 mmHg 42%
    13:00 +36°C° 0 mm 3 mps 746 mmHg 40%
    14:00 +36°C° 0 mm 3 mps 745 mmHg 40%
    15:00 +36°C° 0 mm 3 mps 744 mmHg 41%
    16:00 +36°C° 0 mm 3 mps 743 mmHg 41%
    17:00 +34°C° 0 mm 2 mps 744 mmHg 47%
    18:00 +31°C° 0 mm 2 mps 744 mmHg 52%
    19:00 +29°C° 0 mm 1 mps 745 mmHg 58%
    20:00 +29°C° 0 mm 1 mps 745 mmHg 59%
    21:00 +28°C° 0 mm 1 mps 746 mmHg 59%
    22:00 +28°C° 0 mm 1 mps 747 mmHg 60%
    23:00 +27°C° 0 mm 1 mps 746 mmHg 57%

    24 January, Wednesday

    Time Temperature Precipitation Wind Pressure Humidity
    00:00 +26°C° 0 mm 1 mps 746 mmHg 54%
    01:00 +26°C° 0 mm 1 mps 746 mmHg 51%
    02:00 +25°C° 0 mm 1 mps 746 mmHg 49%
    03:00 +25°C° 0 mm 1 mps 746 mmHg 48%
    04:00 +25°C° 0 mm 1 mps 746 mmHg 46%
    05:00 +25°C° 0 mm 1 mps 746 mmHg 47%
    06:00 +25°C° 0 mm 1 mps 747 mmHg 47%
    07:00 +26°C° 0 mm 2 mps 748 mmHg 47%
    08:00 +28°C° 0 mm 2 mps 748 mmHg 47%
    09:00 +30°C° 0 mm 3 mps 749 mmHg 47%
    10:00 +33°C° 0 mm 3 mps 749 mmHg 47%
    11:00 +34°C° 0 mm 3 mps 748 mmHg 44%
    12:00 +35°C° 0 mm 3 mps 747 mmHg 42%
    13:00 +36°C° 0 mm 3 mps 746 mmHg 39%
    14:00 +36°C° 0 mm 3 mps 745 mmHg 38%
    15:00 +36°C° 0 mm 3 mps 744 mmHg 38%
    16:00 +36°C° 0 mm 3 mps 744 mmHg 38%
    17:00 +34°C° 0 mm 2 mps 744 mmHg 43%
    18:00 +31°C° 0 mm 1 mps 745 mmHg 48%
    19:00 +29°C° 0 mm 1 mps 745 mmHg 54%
    20:00 +29°C° 0 mm 1 mps 746 mmHg 55%
    21:00 +28°C° 0 mm 1 mps 746 mmHg 56%
    22:00 +28°C° 0 mm 1 mps 747 mmHg 58%
    23:00 +27°C° 0 mm 1 mps 747 mmHg 58%

    25 January, Thursday

    Time Temperature Precipitation Wind Pressure Humidity
    00:00 +27°C° 0 mm 1 mps 746 mmHg 58%
    01:00 +26°C° 0 mm 1 mps 746 mmHg 58%
    02:00 +26°C° 0 mm 1 mps 746 mmHg 56%
    03:00 +25°C° 0 mm 1 mps 746 mmHg 54%
    04:00 +25°C° 0 mm 1 mps 746 mmHg 52%
    05:00 +25°C° 0 mm 1 mps 747 mmHg 51%
    06:00 +25°C° 0 mm 1 mps 747 mmHg 50%
    07:00 +25°C° 0 mm 1 mps 748 mmHg 50%
    08:00 +28°C° 0 mm 2 mps 748 mmHg 48%
    09:00 +30°C° 0 mm 3 mps 749 mmHg 46%
    10:00 +33°C° 0 mm 3 mps 749 mmHg 44%
    11:00 +34°C° 0 mm 3 mps 748 mmHg 42%
    12:00 +35°C° 0 mm 3 mps 747 mmHg 39%
    13:00 +37°C° 0 mm 3 mps 746 mmHg 37%
    14:00 +36°C° 0 mm 3 mps 745 mmHg 37%
    15:00 +36°C° 0 mm 3 mps 744 mmHg 37%
    16:00 +36°C° 0 mm 2 mps 744 mmHg 37%
    17:00 +34°C° 0 mm 2 mps 744 mmHg 42%
    18:00 +31°C° 0 mm 1 mps 745 mmHg 46%
    19:00 +29°C° 0 mm 1 mps 745 mmHg 51%
    20:00 +29°C° 0 mm 1 mps 746 mmHg 52%
    21:00 +28°C° 0 mm 1 mps 746 mmHg 53%
    22:00 +28°C° 0 mm 1 mps 747 mmHg 54%
    23:00 +27°C° 0 mm 1 mps 746 mmHg 56%

    26 January, Friday

    Time Temperature Precipitation Wind Pressure Humidity
    00:00 +26°C° 0 mm 1 mps 746 mmHg 57%
    01:00 +26°C° 0 mm 1 mps 746 mmHg 58%
    02:00 +25°C° 0 mm 1 mps 746 mmHg 58%
    03:00 +25°C° 0 mm 1 mps 746 mmHg 57%
    04:00 +24°C° 0 mm 1 mps 746 mmHg 57%
    05:00 +25°C° 0 mm 1 mps 746 mmHg 56%
    06:00 +25°C° 0 mm 1 mps 747 mmHg 55%
    07:00 +25°C° 0 mm 1 mps 748 mmHg 55%
    08:00 +27°C° 0 mm 2 mps 748 mmHg 51%
    09:00 +30°C° 0 mm 3 mps 748 mmHg 47%
    10:00 +34°C° 0 mm 3 mps 748 mmHg 43%
    11:00 +35°C° 0 mm 3 mps 747 mmHg 40%
    12:00 +36°C° 0 mm 3 mps 746 mmHg 38%
    13:00 +37°C° 0 mm 3 mps 745 mmHg 35%
    14:00 +37°C° 0 mm 3 mps 745 mmHg 34%
    15:00 +37°C° 0 mm 3 mps 744 mmHg 34%
    16:00 +37°C° 0 mm 3 mps 743 mmHg 33%
    17:00 +35°C° 0 mm 2 mps 743 mmHg 38%
    18:00 +32°C° 0 mm 2 mps 744 mmHg 42%
    19:00 +30°C° 0 mm 1 mps 744 mmHg 47%
    20:00 +29°C° 0 mm 1 mps 745 mmHg 48%
    21:00 +28°C° 0 mm 1 mps 746 mmHg 50%
    22:00 +28°C° 0 mm 1 mps 746 mmHg 51%
    23:00 +27°C° 0 mm 1 mps 746 mmHg 52%
    Show more